Weather History for Crossville, TN

Change the Weather History Date:

Sunday, February 9, 2014

  Actual Average Record
Temperature  
Mean Temperature 37 °F 38 °F  
Max Temperature 38 °F 47 °F 69 °F (1999)
Min Temperature 35 °F 29 °F -3 °F (1971)
Degree Days  
Heating Degree Days 28    
Month to date heating degree days 263  
Since 1 July heating degree days 3035  
Cooling Degree Days 0    
Month to date cooling degree days 0  
Year to date cooling degree days 0  
Moisture  
Dew Point 33 °F    
Average Humidity 87    
Maximum Humidity 92    
Minimum Humidity 82    
Precipitation  
Precipitation T in 0.16 in 1.34 in (1990)
Month to date precipitation 1.68 1.44  
Year to date precipitation 3.91 6.20  
Sea Level Pressure  
Sea Level Pressure 30.11 in    
Wind  
Wind Speed 4 mph (WNW)    
Max Wind Speed 12 mph    
Max Gust Speed 17 mph    
Visibility 5 miles    
Events Fog    
T = Trace of Precipitation, MM = Missing Value Source: NWS Daily Summary

Daily Weather History Graph

Daily Weather History Graph

Search for Another Location

Airport:

Trip Planner

Search our weather history database for the weather conditions in past years. The results will help you decide how hot, cold, wet, or windy it might be!

Date:

Astronomy

Feb. 09, 2014 Rise Set
Actual Time 6:33 AM CST 5:15 PM CST
Civil Twilight 6:07 AM CST 5:42 PM CST
Nautical Twilight 5:37 AM CST 6:12 PM CST
Astronomical Twilight 5:07 AM CST 6:42 PM CST
Moon 12:58 PM CST (2/9) 2:35 AM CST (2/9)
Length of Visible Light 11h 35m
Length of Day
10h 42m
Waxing Gibbous, 77% of the Moon is Illuminated
Feb 9
Waxing Gibbous
Feb 14
Full
Feb 22
Last Quarter
Mar 1
New
Mar 8
First Quarter

Hourly Weather History & Observations

Time (CST) Temp. Windchill Dew Point Humidity Pressure Visibility Wind Dir Wind Speed Gust Speed Precip Events Conditions
12:11 AM 35.6 °F 32.8 °F 32.0 °F 87% 30.11 in 10.0 mi West 3.5 mph - N/A   Overcast
12:53 AM 36.0 °F - 32.0 °F 86% 30.13 in 10.0 mi Calm Calm - N/A   Overcast
1:53 AM 36.0 °F - 32.0 °F 86% 30.13 in 10.0 mi Calm Calm - N/A   Overcast
2:53 AM 36.0 °F - 32.0 °F 86% 30.12 in 10.0 mi Calm Calm - N/A   Overcast
3:53 AM 36.0 °F 33.3 °F 32.0 °F 86% 30.10 in 10.0 mi SSE 3.5 mph - N/A   Overcast
4:53 AM 37.0 °F - 32.0 °F 82% 30.09 in 10.0 mi Calm Calm - N/A   Overcast
5:42 AM 35.6 °F - 32.0 °F 87% 30.07 in 10.0 mi Calm Calm - N/A   Overcast
5:53 AM 36.0 °F - 32.0 °F 86% 30.10 in 10.0 mi Calm Calm - N/A   Overcast
6:53 AM 36.0 °F 33.3 °F 33.1 °F 89% 30.10 in 10.0 mi Variable 3.5 mph - 0.00 in   Overcast
7:53 AM 37.9 °F 34.4 °F 33.1 °F 83% 30.12 in 10.0 mi SW 4.6 mph - N/A   Overcast
8:31 AM 37.4 °F 31.4 °F 33.8 °F 87% 30.12 in 7.0 mi West 8.1 mph - N/A   Overcast
8:43 AM 37.4 °F 30.8 °F 33.8 °F 87% 30.12 in 4.0 mi WSW 9.2 mph - N/A   Overcast
8:53 AM 37.0 °F 34.5 °F 34.0 °F 89% 30.14 in 2.0 mi West 3.5 mph - N/A   Overcast
9:13 AM 37.4 °F 32.8 °F 35.6 °F 93% 30.11 in 1.8 mi SW 5.8 mph - N/A   Overcast
9:39 AM 37.4 °F 32.8 °F 35.6 °F 93% 30.10 in 2.5 mi WSW 5.8 mph - N/A   Overcast
9:46 AM 37.4 °F 33.8 °F 35.6 °F 93% 30.10 in 3.0 mi SSW 4.6 mph - N/A   Overcast
9:53 AM 37.0 °F 32.4 °F 36.0 °F 96% 30.12 in 5.0 mi Variable 5.8 mph - N/A   Overcast
10:53 AM 37.9 °F 33.5 °F 35.1 °F 89% 30.12 in 10.0 mi West 5.8 mph - N/A   Overcast
11:22 AM 37.4 °F 32.1 °F 35.6 °F 93% 30.09 in 4.0 mi Variable 6.9 mph 17.3 mph N/A   Overcast
11:39 AM 37.4 °F 32.1 °F 35.6 °F 93% 30.08 in 1.5 mi West 6.9 mph - N/A   Overcast
11:53 AM 37.0 °F 32.4 °F 36.0 °F 96% 30.09 in 0.8 mi Variable 5.8 mph - N/A   Overcast
12:01 PM 37.4 °F 32.8 °F 35.6 °F 93% 30.06 in 0.2 mi West 5.8 mph - N/A Fog Fog
12:43 PM 37.4 °F 32.8 °F 35.6 °F 93% 30.06 in 0.8 mi West 5.8 mph - N/A   Overcast
12:53 PM 37.0 °F 31.6 °F 36.0 °F 96% 30.08 in 0.8 mi West 6.9 mph - N/A   Overcast
1:02 PM 37.4 °F 33.8 °F 35.6 °F 93% 30.05 in 1.0 mi West 4.6 mph - N/A   Overcast
1:46 PM 35.6 °F 29.9 °F 35.6 °F 100% 30.05 in 2.5 mi West 6.9 mph - N/A   Overcast
1:53 PM 37.0 °F 30.4 °F 35.1 °F 93% 30.08 in 3.0 mi West 9.2 mph - N/A   Overcast
2:11 PM 37.4 °F 32.1 °F 35.6 °F 93% 30.06 in 5.0 mi West 6.9 mph - N/A   Overcast
2:26 PM 37.4 °F 32.8 °F 35.6 °F 93% 30.06 in 4.0 mi West 5.8 mph - N/A   Overcast
2:53 PM 37.0 °F 31.6 °F 35.1 °F 93% 30.08 in 6.0 mi West 6.9 mph - N/A   Overcast
3:51 PM 35.6 °F 29.9 °F 33.8 °F 93% 30.09 in 5.0 mi WNW 6.9 mph - N/A   Overcast
3:53 PM 36.0 °F 31.1 °F 34.0 °F 93% 30.12 in 5.0 mi WNW 5.8 mph - N/A   Overcast
4:53 PM 36.0 °F 33.3 °F 34.0 °F 93% 30.11 in 6.0 mi NW 3.5 mph - N/A   Overcast
5:53 PM 35.1 °F 30.1 °F 33.1 °F 92% 30.16 in 3.0 mi NNW 5.8 mph - N/A   Overcast
6:53 PM 34.0 °F 28.0 °F 32.0 °F 92% 30.18 in 5.0 mi North 6.9 mph - N/A   Overcast
7:15 PM 33.8 °F 29.6 °F 32.0 °F 93% 30.14 in 2.5 mi NNW 4.6 mph - N/A   Overcast
7:53 PM 33.1 °F 28.7 °F 32.0 °F 96% 30.15 in 2.5 mi North 4.6 mph - N/A   Overcast
8:53 PM 32.0 °F 27.5 °F 30.9 °F 96% 30.14 in 2.0 mi NE 4.6 mph - N/A   Overcast
9:27 PM 32.0 °F 25.6 °F 30.2 °F 93% 30.10 in 1.2 mi NE 6.9 mph - N/A   Overcast
9:53 PM 32.0 °F 27.5 °F 30.9 °F 96% 30.12 in 1.0 mi NE 4.6 mph - N/A   Overcast
10:17 PM 32.0 °F 26.4 °F 30.2 °F 93% 30.10 in 2.0 mi North 5.8 mph - N/A   Overcast
10:24 PM 32.0 °F 26.4 °F 30.2 °F 93% 30.11 in 1.8 mi North 5.8 mph - N/A   Overcast
10:42 PM 30.2 °F 22.6 °F 30.2 °F 100% 30.11 in 2.0 mi NNE 8.1 mph - N/A   Overcast
10:53 PM 30.9 °F 25.2 °F 30.0 °F 96% 30.15 in 2.5 mi North 5.8 mph - N/A   Overcast
11:53 PM 30.0 °F 22.4 °F 28.9 °F 96% 30.16 in 2.5 mi NNE 8.1 mph - N/A   Overcast